Location: Dal�� Lhota
(48.7500°N, 14.0167°E)
Time: 02:11:59
(UTC+00:00)

Cosmos 1805 - Pass Details

Date: 24 September 2020
Orbit: 524 x 531 km, 82.5° (Epoch: 29 October)

Event Time Altitude Azimuth Distance (km) Brightness Sun altitude
Rises 17:47:34 0° 156° (SSE) 2,661 6.5 -9.2°
Reaches altitude 10° 17:49:59 10° 142° (SE) 1,778 5.5 -9.5°
Maximum altitude 17:53:08 24° 89° (E) 1,145 4.4 -10.1°
Drops below altitude 10° 17:56:18 10° 35° (NE) 1,793 5.7 -10.6°
Sets 17:58:45 0° 21° (NNE) 2,689 6.7 -11.0°
